Time,TemperatureF,DewpointF,PressureIn,WindDirection,WindDirectionDegrees,WindSpeedMPH,WindSpeedGustMPH,Humidity,HourlyPrecipIn,Conditions,Clouds,dailyrainin,SoftwareType,DateUTC
2013-07-09 00:03:00,77.0,72.5,29.95,South,180,0.0,0.0,86,0.00,,---,0.00,VWS V14.01,2013-07-09 05:03:00,
2013-07-09 00:08:00,76.8,72.3,29.95,South,180,0.0,0.0,86,0.00,,---,0.00,VWS V14.01,2013-07-09 05:08:00,
2013-07-09 00:13:00,76.7,72.2,29.95,South,180,0.0,0.0,86,0.00,,---,0.00,VWS V14.01,2013-07-09 05:13:00,
2013-07-09 00:18:00,76.7,72.2,29.95,South,180,0.0,0.0,86,0.00,,---,0.00,VWS V14.01,2013-07-09 05:18:00,
2013-07-09 00:23:00,76.7,72.2,29.95,South,180,0.0,0.0,86,0.00,,---,0.00,VWS V14.01,2013-07-09 05:23:00,
2013-07-09 00:28:00,76.6,72.1,29.95,South,180,0.0,0.0,86,0.00,,---,0.00,VWS V14.01,2013-07-09 05:28:00,
2013-07-09 00:33:00,76.5,72.3,29.96,South,180,0.0,0.0,87,0.00,,---,0.00,VWS V14.01,2013-07-09 05:33:00,
2013-07-09 00:38:00,76.4,72.2,29.96,South,180,0.0,0.0,87,0.00,,---,0.00,VWS V14.01,2013-07-09 05:38:00,
2013-07-09 00:43:00,76.4,72.2,29.96,South,180,0.0,0.0,87,0.00,,---,0.00,VWS V14.01,2013-07-09 05:43:00,
2013-07-09 00:48:00,76.3,72.2,29.95,South,180,0.0,0.0,87,0.00,,---,0.00,VWS V14.01,2013-07-09 05:48:00,
2013-07-09 00:53:00,76.2,72.1,29.95,South,180,0.0,0.0,87,0.00,,---,0.00,VWS V14.01,2013-07-09 05:53:00,
2013-07-09 00:58:00,76.2,72.1,29.95,South,180,0.0,0.0,87,0.00,,---,0.00,VWS V14.01,2013-07-09 05:58:00,
2013-07-09 01:03:00,76.1,72.3,29.95,South,180,0.0,0.0,88,0.00,,---,0.00,VWS V14.01,2013-07-09 06:03:00,
2013-07-09 01:08:00,76.0,72.2,29.95,South,174,0.0,0.0,88,0.00,,---,0.00,VWS V14.01,2013-07-09 06:08:00,
2013-07-09 01:13:00,76.0,72.2,29.95,South,174,0.0,0.0,88,0.00,,---,0.00,VWS V14.01,2013-07-09 06:13:00,
2013-07-09 01:18:00,75.9,72.1,29.95,South,175,0.0,0.0,88,0.00,,---,0.00,VWS V14.01,2013-07-09 06:18:00,
2013-07-09 01:23:00,75.8,72.0,29.95,South,175,0.0,0.0,88,0.00,,---,0.00,VWS V14.01,2013-07-09 06:23:00,
2013-07-09 01:28:00,75.8,72.0,29.95,South,174,0.0,0.0,88,0.00,,---,0.00,VWS V14.01,2013-07-09 06:28:00,
2013-07-09 01:33:00,75.6,71.8,29.95,South,174,0.0,0.0,88,0.00,,---,0.00,VWS V14.01,2013-07-09 06:33:00,
2013-07-09 01:38:00,75.5,71.7,29.95,South,175,0.0,0.0,88,0.00,,---,0.00,VWS V14.01,2013-07-09 06:38:00,
2013-07-09 01:43:00,75.3,71.8,29.95,South,175,0.0,0.0,89,0.00,,---,0.00,VWS V14.01,2013-07-09 06:43:00,
2013-07-09 01:48:00,75.0,71.5,29.95,South,174,0.0,0.0,89,0.00,,---,0.00,VWS V14.01,2013-07-09 06:48:00,
2013-07-09 01:53:00,74.7,71.6,29.95,South,175,0.0,0.0,90,0.00,,---,0.00,VWS V14.01,2013-07-09 06:53:00,
2013-07-09 01:58:00,74.6,71.5,29.95,South,174,0.0,0.0,90,0.00,,---,0.00,VWS V14.01,2013-07-09 06:58:00,
2013-07-09 02:03:00,74.4,71.3,29.95,South,174,0.0,0.0,90,0.00,,---,0.00,VWS V14.01,2013-07-09 07:03:00,
2013-07-09 02:08:00,74.2,71.4,29.95,South,174,0.0,0.0,91,0.00,,---,0.00,VWS V14.01,2013-07-09 07:08:00,
2013-07-09 02:13:00,74.1,71.3,29.95,South,174,0.0,0.0,91,0.00,,---,0.00,VWS V14.01,2013-07-09 07:13:00,
2013-07-09 02:18:00,74.0,71.2,29.95,South,175,0.0,0.0,91,0.00,,---,0.00,VWS V14.01,2013-07-09 07:18:00,
2013-07-09 02:23:00,74.0,71.2,29.95,South,175,0.0,0.0,91,0.00,,---,0.00,VWS V14.01,2013-07-09 07:23:00,
2013-07-09 02:28:00,73.9,71.1,29.95,South,174,0.0,0.0,91,0.00,,---,0.00,VWS V14.01,2013-07-09 07:28:00,
2013-07-09 02:33:00,74.0,71.5,29.95,South,174,0.0,0.0,92,0.00,,---,0.00,VWS V14.01,2013-07-09 07:33:00,
2013-07-09 02:38:00,74.1,71.6,29.95,South,174,0.0,0.0,92,0.00,,---,0.00,VWS V14.01,2013-07-09 07:38:00,
2013-07-09 02:43:00,74.2,71.7,29.95,South,175,0.0,0.0,92,0.00,,---,0.00,VWS V14.01,2013-07-09 07:43:00,
2013-07-09 02:48:00,74.4,71.9,29.95,South,174,0.0,0.0,92,0.00,,---,0.00,VWS V14.01,2013-07-09 07:48:00,
2013-07-09 02:53:00,74.5,72.0,29.95,South,173,0.0,0.0,92,0.00,,---,0.00,VWS V14.01,2013-07-09 07:53:00,
2013-07-09 02:58:00,74.7,71.9,29.95,South,174,0.0,0.0,91,0.00,,---,0.00,VWS V14.01,2013-07-09 07:58:00,
2013-07-09 03:03:00,74.8,72.0,29.95,South,174,0.0,0.0,91,0.00,,---,0.00,VWS V14.01,2013-07-09 08:03:00,
2013-07-09 03:08:00,74.9,72.1,29.95,South,174,0.0,0.0,91,0.00,,---,0.00,VWS V14.01,2013-07-09 08:08:00,
2013-07-09 03:13:00,75.0,72.2,29.95,South,175,0.0,0.0,91,0.00,,---,0.00,VWS V14.01,2013-07-09 08:13:00,
2013-07-09 03:18:00,75.1,72.3,29.95,South,175,0.0,0.0,91,0.00,,---,0.00,VWS V14.01,2013-07-09 08:18:00,
2013-07-09 03:23:00,75.2,72.4,29.95,South,173,0.0,0.0,91,0.00,,---,0.00,VWS V14.01,2013-07-09 08:23:00,
2013-07-09 03:28:00,75.3,72.5,29.95,South,173,0.0,0.0,91,0.00,,---,0.00,VWS V14.01,2013-07-09 08:28:00,
2013-07-09 03:33:00,75.3,72.2,29.95,South,173,0.0,0.0,90,0.00,,---,0.00,VWS V14.01,2013-07-09 08:33:00,
2013-07-09 03:38:00,75.4,72.3,29.95,South,178,0.0,0.0,90,0.00,,---,0.00,VWS V14.01,2013-07-09 08:38:00,
2013-07-09 03:43:00,75.4,72.3,29.95,South,178,0.0,0.0,90,0.00,,---,0.00,VWS V14.01,2013-07-09 08:43:00,
2013-07-09 03:48:00,75.4,72.3,29.95,South,178,0.0,0.0,90,0.00,,---,0.00,VWS V14.01,2013-07-09 08:48:00,
2013-07-09 03:53:00,75.4,72.3,29.95,SSE,168,0.0,0.0,90,0.00,,---,0.00,VWS V14.01,2013-07-09 08:53:00,
2013-07-09 03:58:00,75.4,72.3,29.95,SSE,168,0.0,0.0,90,0.00,,---,0.00,VWS V14.01,2013-07-09 08:58:00,
2013-07-09 04:03:00,75.3,72.2,29.95,South,169,0.0,0.0,90,0.00,,---,0.00,VWS V14.01,2013-07-09 09:03:00,
2013-07-09 04:08:00,75.3,72.2,29.95,SSE,168,0.0,0.0,90,0.00,,---,0.00,VWS V14.01,2013-07-09 09:08:00,
2013-07-09 04:13:00,75.3,72.2,29.95,South,169,0.0,0.0,90,0.00,,---,0.00,VWS V14.01,2013-07-09 09:13:00,
2013-07-09 04:18:00,75.2,72.1,29.95,South,169,0.0,0.0,90,0.00,,---,0.00,VWS V14.01,2013-07-09 09:18:00,
2013-07-09 04:23:00,75.2,72.1,29.95,SSE,168,0.0,0.0,90,0.00,,---,0.00,VWS V14.01,2013-07-09 09:23:00,
2013-07-09 04:28:00,75.1,72.0,29.95,South,169,0.0,0.0,90,0.00,,---,0.00,VWS V14.01,2013-07-09 09:28:00,
2013-07-09 04:33:00,75.0,71.9,29.95,SSE,167,0.0,0.0,90,0.00,,---,0.00,VWS V14.01,2013-07-09 09:33:00,
2013-07-09 04:38:00,75.0,72.2,29.95,SSE,167,0.0,0.0,91,0.00,,---,0.00,VWS V14.01,2013-07-09 09:38:00,
2013-07-09 04:43:00,74.9,72.1,29.95,SSE,167,0.0,0.0,91,0.00,,---,0.00,VWS V14.01,2013-07-09 09:43:00,
2013-07-09 04:48:00,74.8,72.0,29.95,SSE,167,0.0,0.0,91,0.00,,---,0.00,VWS V14.01,2013-07-09 09:48:00,
2013-07-09 04:53:00,74.8,72.0,29.95,SSE,167,0.0,0.0,91,0.00,,---,0.00,VWS V14.01,2013-07-09 09:53:00,
2013-07-09 04:58:00,74.7,71.9,29.95,SSE,167,0.0,0.0,91,0.00,,---,0.00,VWS V14.01,2013-07-09 09:58:00,
2013-07-09 05:03:00,74.7,71.9,29.95,SSE,167,0.0,0.0,91,0.00,,---,0.00,VWS V14.01,2013-07-09 10:03:00,
2013-07-09 05:08:00,74.6,71.8,29.95,SSE,167,0.0,0.0,91,0.00,,---,0.00,VWS V14.01,2013-07-09 10:08:00,
2013-07-09 05:13:00,74.5,71.7,29.95,SSE,167,0.0,0.0,91,0.00,,---,0.00,VWS V14.01,2013-07-09 10:13:00,
2013-07-09 05:18:00,74.4,71.6,29.96,SSE,167,0.0,0.0,91,0.00,,---,0.00,VWS V14.01,2013-07-09 10:18:00,
2013-07-09 05:23:00,74.4,71.9,29.96,South,169,0.0,0.0,92,0.00,,---,0.00,VWS V14.01,2013-07-09 10:23:00,
2013-07-09 05:28:00,74.5,71.7,29.96,South,169,0.0,0.0,91,0.00,,---,0.00,VWS V14.01,2013-07-09 10:28:00,
2013-07-09 05:33:00,74.4,71.9,29.97,South,169,0.0,0.0,92,0.00,,---,0.00,VWS V14.01,2013-07-09 10:33:00,
2013-07-09 05:38:00,74.4,71.9,29.97,South,169,0.0,0.0,92,0.00,,---,0.00,VWS V14.01,2013-07-09 10:38:00,
2013-07-09 05:43:00,74.4,71.9,29.97,South,169,0.0,0.0,92,0.00,,---,0.00,VWS V14.01,2013-07-09 10:43:00,
2013-07-09 05:48:00,74.4,71.9,29.96,South,169,0.0,0.0,92,0.00,,---,0.00,VWS V14.01,2013-07-09 10:48:00,
2013-07-09 05:53:00,74.3,71.8,29.96,South,169,0.0,0.0,92,0.00,,---,0.00,VWS V14.01,2013-07-09 10:53:00,
2013-07-09 05:58:00,74.3,71.8,29.96,South,169,0.0,0.0,92,0.00,,---,0.00,VWS V14.01,2013-07-09 10:58:00,
2013-07-09 06:03:00,74.3,71.8,29.96,SSE,168,0.0,0.0,92,0.00,,---,0.00,VWS V14.01,2013-07-09 11:03:00,
2013-07-09 06:08:00,74.4,71.9,29.96,SSE,168,0.0,0.0,92,0.00,,---,0.00,VWS V14.01,2013-07-09 11:08:00,
2013-07-09 06:13:00,74.4,71.9,29.96,South,169,0.0,0.0,92,0.00,,---,0.00,VWS V14.01,2013-07-09 11:13:00,
2013-07-09 06:18:00,74.5,72.0,29.97,South,169,0.0,0.0,92,0.00,,---,0.00,VWS V14.01,2013-07-09 11:18:00,
2013-07-09 06:23:00,74.6,72.1,29.97,South,169,0.0,0.0,92,0.00,,---,0.00,VWS V14.01,2013-07-09 11:23:00,
2013-07-09 06:28:00,74.8,72.3,29.97,South,169,0.0,0.0,92,0.00,,---,0.00,VWS V14.01,2013-07-09 11:28:00,
2013-07-09 06:33:00,75.1,72.6,29.97,SSE,154,0.0,0.0,92,0.00,,---,0.00,VWS V14.01,2013-07-09 11:33:00,
2013-07-09 06:38:00,75.4,72.6,29.97,SSE,154,0.0,0.0,91,0.00,,---,0.00,VWS V14.01,2013-07-09 11:38:00,
2013-07-09 06:43:00,75.8,73.0,29.97,SSE,155,0.0,0.0,91,0.00,,---,0.00,VWS V14.01,2013-07-09 11:43:00,
2013-07-09 06:48:00,76.2,73.1,29.96,SSE,155,0.0,0.0,90,0.00,,---,0.00,VWS V14.01,2013-07-09 11:48:00,
2013-07-09 06:53:00,76.6,73.4,29.96,SSE,155,0.0,0.0,90,0.00,,---,0.00,VWS V14.01,2013-07-09 11:53:00,
2013-07-09 06:58:00,76.9,73.4,29.96,South,174,0.0,0.0,89,0.00,,---,0.00,VWS V14.01,2013-07-09 11:58:00,
2013-07-09 07:03:00,77.3,73.5,29.95,South,173,0.0,0.0,88,0.00,,---,0.00,VWS V14.01,2013-07-09 12:03:00,
2013-07-09 07:08:00,77.7,73.5,29.95,SSE,164,0.0,0.0,87,0.00,,---,0.00,VWS V14.01,2013-07-09 12:08:00,
2013-07-09 07:13:00,78.1,73.9,29.95,SSE,158,0.0,0.0,87,0.00,,---,0.00,VWS V14.01,2013-07-09 12:13:00,
2013-07-09 07:18:00,78.5,74.0,29.95,SSE,158,0.0,0.0,86,0.00,,---,0.00,VWS V14.01,2013-07-09 12:18:00,
2013-07-09 07:23:00,78.7,73.8,29.95,SSE,163,0.0,0.0,85,0.00,,---,0.00,VWS V14.01,2013-07-09 12:23:00,
2013-07-09 07:28:00,79.1,74.2,29.95,SSW,201,0.0,0.0,85,0.00,,---,0.00,VWS V14.01,2013-07-09 12:28:00,
2013-07-09 07:33:00,79.5,74.2,29.96,SSE,166,0.0,0.0,84,0.00,,---,0.00,VWS V14.01,2013-07-09 12:33:00,
2013-07-09 07:38:00,79.8,74.5,29.96,SSW,192,0.0,0.0,84,0.00,,---,0.00,VWS V14.01,2013-07-09 12:38:00,
2013-07-09 07:43:00,80.0,74.4,29.96,South,186,0.0,0.0,83,0.00,,---,0.00,VWS V14.01,2013-07-09 12:43:00,
2013-07-09 07:48:00,80.3,74.7,29.96,SSE,151,0.0,0.0,83,0.00,,---,0.00,VWS V14.01,2013-07-09 12:48:00,
2013-07-09 07:53:00,80.7,75.1,29.96,SSW,200,0.0,0.0,83,0.00,,---,0.00,VWS V14.01,2013-07-09 12:53:00,
2013-07-09 07:58:00,81.2,75.6,29.96,SSW,201,0.0,0.0,83,0.00,,---,0.00,VWS V14.01,2013-07-09 12:58:00,
2013-07-09 08:03:00,81.6,75.6,29.96,SSW,200,0.0,0.0,82,0.00,,---,0.00,VWS V14.01,2013-07-09 13:03:00,
2013-07-09 08:08:00,82.0,75.6,29.96,SSW,201,0.0,0.0,81,0.00,,---,0.00,VWS V14.01,2013-07-09 13:08:00,
2013-07-09 08:13:00,82.6,75.8,29.96,NW,315,0.0,0.0,80,0.00,,---,0.00,VWS V14.01,2013-07-09 13:13:00,
2013-07-09 08:18:00,83.2,76.0,29.96,SSW,208,0.0,0.0,79,0.00,,---,0.00,VWS V14.01,2013-07-09 13:18:00,
2013-07-09 08:23:00,83.4,75.8,29.96,South,190,0.0,0.0,78,0.00,,---,0.00,VWS V14.01,2013-07-09 13:23:00,
2013-07-09 08:28:00,83.5,75.9,29.96,SE,145,0.0,0.0,78,0.00,,---,0.00,VWS V14.01,2013-07-09 13:28:00,
2013-07-09 08:33:00,83.7,75.7,29.97,South,184,0.0,0.0,77,0.00,,---,0.00,VWS V14.01,2013-07-09 13:33:00,
2013-07-09 08:38:00,84.0,76.4,29.97,South,184,0.0,0.0,78,0.00,,---,0.00,VWS V14.01,2013-07-09 13:38:00,
2013-07-09 08:43:00,84.2,76.2,29.97,SSW,213,0.0,0.0,77,0.00,,---,0.00,VWS V14.01,2013-07-09 13:43:00,
2013-07-09 08:48:00,84.2,75.8,29.97,ESE,107,0.0,0.0,76,0.00,,---,0.00,VWS V14.01,2013-07-09 13:48:00,
2013-07-09 08:53:00,84.6,76.2,29.97,SSE,165,0.0,0.0,76,0.00,,---,0.00,VWS V14.01,2013-07-09 13:53:00,
2013-07-09 08:58:00,85.1,77.1,29.97,SSE,165,0.0,0.0,77,0.00,,---,0.00,VWS V14.01,2013-07-09 13:58:00,
2013-07-09 09:03:00,85.7,77.3,29.97,SSE,154,0.0,0.0,76,0.00,,---,0.00,VWS V14.01,2013-07-09 14:03:00,
2013-07-09 09:08:00,86.3,77.0,29.97,WSW,250,0.0,0.0,74,0.00,,---,0.00,VWS V14.01,2013-07-09 14:08:00,
2013-07-09 09:13:00,86.7,77.4,29.97,WSW,251,0.0,0.0,74,0.00,,---,0.00,VWS V14.01,2013-07-09 14:13:00,
2013-07-09 09:18:00,87.1,77.0,29.96,WSW,248,0.0,0.0,72,0.00,,---,0.00,VWS V14.01,2013-07-09 14:18:00,
2013-07-09 09:23:00,87.1,76.6,29.96,West,281,0.0,0.0,71,0.00,,---,0.00,VWS V14.01,2013-07-09 14:23:00,
2013-07-09 09:28:00,87.2,77.1,29.96,West,280,0.0,0.0,72,0.00,,---,0.00,VWS V14.01,2013-07-09 14:28:00,
2013-07-09 09:33:00,87.7,77.6,29.96,SE,136,0.0,0.0,72,0.00,,---,0.00,VWS V14.01,2013-07-09 14:33:00,
2013-07-09 09:38:00,88.0,77.0,29.96,SE,145,0.0,0.0,70,0.00,,---,0.00,VWS V14.01,2013-07-09 14:38:00,
2013-07-09 09:43:00,88.2,77.2,29.96,WNW,303,0.0,0.0,70,0.00,,---,0.00,VWS V14.01,2013-07-09 14:43:00,
2013-07-09 09:48:00,88.2,77.6,29.96,West,271,0.0,0.0,71,0.00,,---,0.00,VWS V14.01,2013-07-09 14:48:00,
2013-07-09 09:53:00,88.3,77.3,29.96,SW,219,0.0,0.0,70,0.00,,---,0.00,VWS V14.01,2013-07-09 14:53:00,
2013-07-09 09:58:00,88.3,76.8,29.96,WSW,246,0.0,0.0,69,0.00,,---,0.00,VWS V14.01,2013-07-09 14:58:00,
2013-07-09 10:03:00,88.3,76.4,29.96,SW,227,0.0,0.0,68,0.00,,---,0.00,VWS V14.01,2013-07-09 15:03:00,
2013-07-09 10:08:00,88.4,76.9,29.96,SW,230,0.0,0.0,69,0.00,,---,0.00,VWS V14.01,2013-07-09 15:08:00,
2013-07-09 10:13:00,88.8,77.3,29.96,West,259,0.0,0.0,69,0.00,,---,0.00,VWS V14.01,2013-07-09 15:13:00,
2013-07-09 10:18:00,89.0,77.5,29.96,SSW,194,0.0,0.0,69,0.00,,---,0.00,VWS V14.01,2013-07-09 15:18:00,
2013-07-09 10:23:00,89.3,76.9,29.96,WNW,287,0.0,0.0,67,0.00,,---,0.00,VWS V14.01,2013-07-09 15:23:00,
2013-07-09 10:28:00,89.7,77.3,29.96,West,269,0.0,0.0,67,0.00,,---,0.00,VWS V14.01,2013-07-09 15:28:00,
2013-07-09 10:33:00,89.9,77.5,29.95,SSW,200,0.0,0.0,67,0.00,,---,0.00,VWS V14.01,2013-07-09 15:33:00,
2013-07-09 10:38:00,90.0,77.6,29.95,SSE,157,0.0,0.0,67,0.00,,---,0.00,VWS V14.01,2013-07-09 15:38:00,
2013-07-09 10:43:00,90.4,77.0,29.95,SSW,197,0.0,0.0,65,0.00,,---,0.00,VWS V14.01,2013-07-09 15:43:00,
2013-07-09 10:48:00,90.4,77.0,29.96,SW,222,0.0,0.0,65,0.00,,---,0.00,VWS V14.01,2013-07-09 15:48:00,
2013-07-09 10:53:00,90.8,77.4,29.96,SW,214,0.0,0.0,65,0.00,,---,0.00,VWS V14.01,2013-07-09 15:53:00,
2013-07-09 10:58:00,91.2,77.3,29.96,SSE,168,0.0,0.0,64,0.00,,---,0.00,VWS V14.01,2013-07-09 15:58:00,
2013-07-09 11:03:00,91.4,77.0,29.96,WSW,246,0.0,0.0,63,0.00,,---,0.00,VWS V14.01,2013-07-09 16:03:00,
2013-07-09 11:08:00,91.0,77.1,29.96,West,267,0.0,0.0,64,0.00,,---,0.00,VWS V14.01,2013-07-09 16:08:00,
2013-07-09 11:13:00,90.5,77.1,29.96,West,281,0.0,0.0,65,0.00,,---,0.00,VWS V14.01,2013-07-09 16:13:00,
2013-07-09 11:18:00,90.1,76.8,29.95,West,270,0.0,0.0,65,0.00,,---,0.00,VWS V14.01,2013-07-09 16:18:00,
2013-07-09 11:23:00,89.6,76.7,29.95,SSE,166,0.0,0.0,66,0.00,,---,0.00,VWS V14.01,2013-07-09 16:23:00,
2013-07-09 11:28:00,88.9,75.6,29.95,SW,214,0.0,0.0,65,0.00,,---,0.00,VWS V14.01,2013-07-09 16:28:00,
2013-07-09 11:33:00,88.5,75.7,29.95,SSW,211,0.0,0.0,66,0.00,,---,0.00,VWS V14.01,2013-07-09 16:33:00,
2013-07-09 11:38:00,89.0,76.2,29.95,WNW,292,0.0,0.0,66,0.00,,---,0.00,VWS V14.01,2013-07-09 16:38:00,
2013-07-09 11:43:00,90.1,76.8,29.95,SSW,207,0.0,0.0,65,0.00,,---,0.00,VWS V14.01,2013-07-09 16:43:00,
2013-07-09 11:48:00,91.0,76.7,29.95,West,263,0.0,0.0,63,0.00,,---,0.00,VWS V14.01,2013-07-09 16:48:00,
2013-07-09 11:53:00,91.8,77.4,29.95,SSW,211,0.0,0.0,63,0.00,,---,0.00,VWS V14.01,2013-07-09 16:53:00,
2013-07-09 11:58:00,92.4,77.5,29.95,SSE,153,0.0,0.0,62,0.00,,---,0.00,VWS V14.01,2013-07-09 16:58:00,
2013-07-09 12:03:00,92.8,77.4,29.95,South,191,0.0,0.0,61,0.00,,---,0.00,VWS V14.01,2013-07-09 17:03:00,
2013-07-09 12:10:00,92.6,77.2,29.95,South,174,0.0,0.0,61,0.00,,---,0.00,VWS V14.01,2013-07-09 17:10:00,
2013-07-09 12:15:00,92.3,76.4,29.95,SW,215,0.0,0.0,60,0.00,,---,0.00,VWS V14.01,2013-07-09 17:15:00,
2013-07-09 12:20:00,91.8,76.4,29.95,West,269,0.0,0.0,61,0.00,,---,0.00,VWS V14.01,2013-07-09 17:20:00,
2013-07-09 12:25:00,91.6,76.7,29.95,SW,230,0.0,0.0,62,0.00,,---,0.00,VWS V14.01,2013-07-09 17:25:00,
2013-07-09 12:30:00,91.1,76.8,29.95,South,191,0.0,0.0,63,0.00,,---,0.00,VWS V14.01,2013-07-09 17:30:00,
2013-07-09 12:35:00,91.3,76.5,29.94,WSW,246,0.0,0.0,62,0.00,,---,0.00,VWS V14.01,2013-07-09 17:35:00,
2013-07-09 12:40:00,91.9,77.0,29.94,WNW,290,0.0,0.0,62,0.00,,---,0.00,VWS V14.01,2013-07-09 17:40:00,
2013-07-09 12:45:00,92.6,76.7,29.94,South,171,0.0,0.0,60,0.00,,---,0.00,VWS V14.01,2013-07-09 17:45:00,
2013-07-09 12:50:00,93.1,76.7,29.94,SSW,207,0.0,0.0,59,0.00,,---,0.00,VWS V14.01,2013-07-09 17:50:00,
2013-07-09 12:55:00,93.5,77.0,29.94,SSE,148,0.0,0.0,59,0.00,,---,0.00,VWS V14.01,2013-07-09 17:55:00,
2013-07-09 13:00:00,93.2,77.8,29.94,South,178,0.0,10.0,61,0.00,,---,0.00,VWS V14.01,2013-07-09 18:00:00,
2013-07-09 13:05:00,93.9,77.4,29.93,SSW,198,0.0,0.0,59,0.00,,---,0.00,VWS V14.01,2013-07-09 18:05:00,
2013-07-09 13:10:00,94.2,77.2,29.93,SSW,196,1.0,6.0,58,0.00,,---,0.00,VWS V14.01,2013-07-09 18:10:00,
2013-07-09 13:15:00,94.4,76.8,29.93,SSW,209,1.0,7.0,57,0.00,,---,0.00,VWS V14.01,2013-07-09 18:15:00,
2013-07-09 13:20:00,94.3,77.8,29.93,South,190,0.0,7.0,59,0.00,,---,0.00,VWS V14.01,2013-07-09 18:20:00,
2013-07-09 13:25:00,93.9,76.9,29.93,SSE,167,1.0,8.0,58,0.00,,---,0.00,VWS V14.01,2013-07-09 18:25:00,
2013-07-09 13:30:00,93.9,77.9,29.93,SW,221,1.0,8.0,60,0.00,,---,0.00,VWS V14.01,2013-07-09 18:30:00,
2013-07-09 13:35:00,94.2,78.7,29.93,SSW,205,0.0,7.0,61,0.00,,---,0.00,VWS V14.01,2013-07-09 18:35:00,
2013-07-09 13:40:00,94.2,77.2,29.93,SSW,198,0.0,7.0,58,0.00,,---,0.00,VWS V14.01,2013-07-09 18:40:00,
2013-07-09 13:45:00,94.7,76.6,29.93,SW,217,0.0,7.0,56,0.00,,---,0.00,VWS V14.01,2013-07-09 18:45:00,
2013-07-09 13:50:00,94.9,77.3,29.93,SW,219,0.0,7.0,57,0.00,,---,0.00,VWS V14.01,2013-07-09 18:50:00,
2013-07-09 13:55:00,95.5,77.8,29.93,SW,223,0.0,7.0,57,0.00,,---,0.00,VWS V14.01,2013-07-09 18:55:00,
2013-07-09 14:00:00,95.9,76.0,29.93,WNW,300,3.0,7.0,53,0.00,,---,0.00,VWS V14.01,2013-07-09 19:00:00,
2013-07-09 14:05:00,95.1,75.8,29.93,WSW,238,0.0,2.0,54,0.00,,---,0.00,VWS V14.01,2013-07-09 19:05:00,
2013-07-09 14:10:00,94.5,75.8,29.93,West,277,0.0,10.0,55,0.00,,---,0.00,VWS V14.01,2013-07-09 19:10:00,
2013-07-09 14:15:00,94.4,75.2,29.93,WSW,242,2.0,10.0,54,0.00,,---,0.00,VWS V14.01,2013-07-09 19:15:00,
2013-07-09 14:20:00,94.6,75.9,29.92,SW,222,0.0,10.0,55,0.00,,---,0.00,VWS V14.01,2013-07-09 19:20:00,
2013-07-09 14:25:00,95.4,76.7,29.92,WSW,248,2.0,10.0,55,0.00,,---,0.00,VWS V14.01,2013-07-09 19:25:00,
2013-07-09 14:30:00,95.7,77.0,29.92,ESE,118,0.0,10.0,55,0.00,,---,0.00,VWS V14.01,2013-07-09 19:30:00,
2013-07-09 14:35:00,95.8,76.5,29.91,WSW,241,1.0,4.0,54,0.00,,---,0.00,VWS V14.01,2013-07-09 19:35:00,
2013-07-09 14:40:00,95.4,75.6,29.91,WSW,256,4.0,4.0,53,0.00,,---,0.00,VWS V14.01,2013-07-09 19:40:00,
2013-07-09 14:45:00,95.3,76.6,29.91,WSW,243,2.0,4.0,55,0.00,,---,0.00,VWS V14.01,2013-07-09 19:45:00,
2013-07-09 14:50:00,95.6,77.4,29.90,WSW,252,0.0,4.0,56,0.00,,---,0.00,VWS V14.01,2013-07-09 19:50:00,
2013-07-09 14:55:00,96.0,77.2,29.90,SW,218,0.0,4.0,55,0.00,,---,0.00,VWS V14.01,2013-07-09 19:55:00,
2013-07-09 15:00:00,95.9,76.0,29.90,SSW,198,0.0,4.0,53,0.00,,---,0.00,VWS V14.01,2013-07-09 20:00:00,
2013-07-09 15:05:00,95.3,76.0,29.90,SSE,149,0.0,5.0,54,0.00,,---,0.00,VWS V14.01,2013-07-09 20:05:00,
2013-07-09 15:10:00,95.0,75.8,29.90,SSW,197,1.0,5.0,54,0.00,,---,0.00,VWS V14.01,2013-07-09 20:10:00,
2013-07-09 15:15:00,95.1,76.4,29.90,SSW,194,1.0,5.0,55,0.00,,---,0.00,VWS V14.01,2013-07-09 20:15:00,
2013-07-09 15:20:00,95.3,76.6,29.89,SSW,211,3.0,5.0,55,0.00,,---,0.00,VWS V14.01,2013-07-09 20:20:00,
2013-07-09 15:25:00,95.6,76.9,29.89,WSW,237,0.0,5.0,55,0.00,,---,0.00,VWS V14.01,2013-07-09 20:25:00,
2013-07-09 15:30:00,95.8,77.1,29.89,SW,220,0.0,5.0,55,0.00,,---,0.00,VWS V14.01,2013-07-09 20:30:00,
2013-07-09 15:35:00,96.2,76.9,29.89,SW,219,1.0,2.0,54,0.00,,---,0.00,VWS V14.01,2013-07-09 20:35:00,
2013-07-09 15:40:00,96.3,77.0,29.89,West,281,2.0,2.0,54,0.00,,---,0.00,VWS V14.01,2013-07-09 20:40:00,
2013-07-09 15:45:00,96.7,77.9,29.89,WSW,249,1.0,2.0,55,0.00,,---,0.00,VWS V14.01,2013-07-09 20:45:00,
2013-07-09 15:50:00,96.8,78.5,29.88,SW,214,0.0,3.0,56,0.00,,---,0.00,VWS V14.01,2013-07-09 20:50:00,
2013-07-09 15:55:00,96.7,77.9,29.88,South,180,0.0,4.0,55,0.00,,---,0.00,VWS V14.01,2013-07-09 20:55:00,
2013-07-09 16:00:00,96.3,78.1,29.88,SSW,195,0.0,4.0,56,0.00,,---,0.00,VWS V14.01,2013-07-09 21:00:00,
2013-07-09 16:05:00,96.2,78.0,29.88,SSE,165,0.0,1.0,56,0.00,,---,0.00,VWS V14.01,2013-07-09 21:05:00,
2013-07-09 16:10:00,96.3,77.5,29.88,SW,216,2.0,6.0,55,0.00,,---,0.00,VWS V14.01,2013-07-09 21:10:00,
2013-07-09 16:15:00,96.5,78.2,29.88,South,183,0.0,6.0,56,0.00,,---,0.00,VWS V14.01,2013-07-09 21:15:00,
2013-07-09 16:20:00,96.5,77.1,29.87,SW,219,0.0,6.0,54,0.00,,---,0.00,VWS V14.01,2013-07-09 21:20:00,
2013-07-09 16:25:00,96.0,76.7,29.87,SW,220,0.0,6.0,54,0.00,,---,0.00,VWS V14.01,2013-07-09 21:25:00,
2013-07-09 16:30:00,95.8,76.5,29.87,SW,217,2.0,6.0,54,0.00,,---,0.00,VWS V14.01,2013-07-09 21:30:00,
2013-07-09 16:35:00,95.6,76.9,29.87,West,259,0.0,2.0,55,0.00,,---,0.00,VWS V14.01,2013-07-09 21:35:00,
2013-07-09 16:40:00,95.6,77.4,29.87,SSW,200,0.0,4.0,56,0.00,,---,0.00,VWS V14.01,2013-07-09 21:40:00,
2013-07-09 16:45:00,95.7,78.0,29.87,SSE,168,0.0,4.0,57,0.00,,---,0.00,VWS V14.01,2013-07-09 21:45:00,
2013-07-09 16:50:00,95.7,76.4,29.87,SW,220,0.0,4.0,54,0.00,,---,0.00,VWS V14.01,2013-07-09 21:50:00,
2013-07-09 16:55:00,95.3,76.6,29.87,SW,215,1.0,4.0,55,0.00,,---,0.00,VWS V14.01,2013-07-09 21:55:00,
2013-07-09 17:00:00,95.0,76.8,29.87,SW,225,1.0,4.0,56,0.00,,---,0.00,VWS V14.01,2013-07-09 22:00:00,
2013-07-09 17:05:00,95.1,75.8,29.86,SSW,198,0.0,12.0,54,0.00,,---,0.00,VWS V14.01,2013-07-09 22:05:00,
2013-07-09 17:10:00,95.0,76.3,29.86,SW,216,2.0,12.0,55,0.00,,---,0.00,VWS V14.01,2013-07-09 22:10:00,
2013-07-09 17:15:00,94.8,76.1,29.86,SSW,204,0.0,12.0,55,0.00,,---,0.00,VWS V14.01,2013-07-09 22:15:00,
2013-07-09 17:20:00,95.0,76.3,29.86,SW,219,0.0,12.0,55,0.00,,---,0.00,VWS V14.01,2013-07-09 22:20:00,
2013-07-09 17:25:00,95.0,76.8,29.86,South,188,0.0,12.0,56,0.00,,---,0.00,VWS V14.01,2013-07-09 22:25:00,
2013-07-09 17:30:00,95.1,77.5,29.86,South,188,0.0,12.0,57,0.00,,---,0.00,VWS V14.01,2013-07-09 22:30:00,
2013-07-09 17:35:00,95.3,77.7,29.85,SSE,161,0.0,2.0,57,0.00,,---,0.00,VWS V14.01,2013-07-09 22:35:00,
2013-07-09 17:40:00,95.5,76.8,29.85,SSW,201,0.0,2.0,55,0.00,,---,0.00,VWS V14.01,2013-07-09 22:40:00,
2013-07-09 17:45:00,94.9,76.8,29.85,SSE,148,2.0,3.0,56,0.00,,---,0.00,VWS V14.01,2013-07-09 22:45:00,
2013-07-09 17:50:00,94.6,77.0,29.85,SW,214,0.0,3.0,57,0.00,,---,0.00,VWS V14.01,2013-07-09 22:50:00,
2013-07-09 17:55:00,94.7,77.1,29.85,SSW,207,0.0,3.0,57,0.00,,---,0.00,VWS V14.01,2013-07-09 22:55:00,
2013-07-09 18:00:00,94.8,76.7,29.85,SSW,200,0.0,3.0,56,0.00,,---,0.00,VWS V14.01,2013-07-09 23:00:00,
2013-07-09 18:05:00,94.9,77.3,29.84,West,260,0.0,0.0,57,0.00,,---,0.00,VWS V14.01,2013-07-09 23:05:00,
2013-07-09 18:10:00,95.0,76.8,29.84,South,191,0.0,2.0,56,0.00,,---,0.00,VWS V14.01,2013-07-09 23:10:00,
2013-07-09 18:15:00,94.6,76.5,29.84,South,177,0.0,2.0,56,0.00,,---,0.00,VWS V14.01,2013-07-09 23:15:00,
2013-07-09 18:20:00,94.2,77.2,29.84,South,177,0.0,2.0,58,0.00,,---,0.00,VWS V14.01,2013-07-09 23:20:00,
2013-07-09 18:25:00,94.1,77.1,29.84,South,180,2.0,2.0,58,0.00,,---,0.00,VWS V14.01,2013-07-09 23:25:00,
2013-07-09 18:30:00,93.8,76.3,29.84,South,188,0.0,2.0,57,0.00,,---,0.00,VWS V14.01,2013-07-09 23:30:00,
2013-07-09 18:35:00,93.5,77.0,29.84,South,182,0.0,1.0,59,0.00,,---,0.00,VWS V14.01,2013-07-09 23:35:00,
2013-07-09 18:40:00,93.0,76.6,29.84,SSE,166,0.0,6.0,59,0.00,,---,0.00,VWS V14.01,2013-07-09 23:40:00,
2013-07-09 18:45:00,92.9,76.5,29.84,SSE,165,0.0,6.0,59,0.00,,---,0.00,VWS V14.01,2013-07-09 23:45:00,
2013-07-09 18:50:00,92.9,76.5,29.84,SSE,165,0.0,6.0,59,0.00,,---,0.00,VWS V14.01,2013-07-09 23:50:00,
2013-07-09 18:55:00,92.8,76.9,29.84,SSE,165,0.0,6.0,60,0.00,,---,0.00,VWS V14.01,2013-07-09 23:55:00,
2013-07-09 19:00:00,92.8,76.9,29.84,SSE,165,0.0,6.0,60,0.00,,---,0.00,VWS V14.01,2013-07-10 00:00:00,
2013-07-09 19:05:00,92.7,77.3,29.84,SSE,165,0.0,0.0,61,0.00,,---,0.00,VWS V14.01,2013-07-10 00:05:00,
2013-07-09 19:10:00,92.7,77.3,29.84,SSE,165,0.0,0.0,61,0.00,,---,0.00,VWS V14.01,2013-07-10 00:10:00,
2013-07-09 19:15:00,92.8,77.9,29.84,SSE,165,0.0,0.0,62,0.00,,---,0.00,VWS V14.01,2013-07-10 00:15:00,
2013-07-09 19:20:00,92.2,77.3,29.84,SSE,166,0.0,1.0,62,0.00,,---,0.00,VWS V14.01,2013-07-10 00:20:00,
2013-07-09 19:25:00,91.4,77.0,29.84,SSE,166,1.0,1.0,63,0.00,,---,0.00,VWS V14.01,2013-07-10 00:25:00,
2013-07-09 19:30:00,90.9,77.5,29.84,SSE,166,0.0,1.0,65,0.00,,---,0.00,VWS V14.01,2013-07-10 00:30:00,
2013-07-09 19:35:00,90.6,77.2,29.84,SSE,167,0.0,0.0,65,0.00,,---,0.00,VWS V14.01,2013-07-10 00:35:00,
2013-07-09 19:40:00,90.2,77.3,29.84,SSE,166,0.0,1.0,66,0.00,,---,0.00,VWS V14.01,2013-07-10 00:40:00,
2013-07-09 19:45:00,89.7,76.8,29.84,SSE,167,0.0,1.0,66,0.00,,---,0.00,VWS V14.01,2013-07-10 00:45:00,
2013-07-09 19:50:00,89.2,76.8,29.84,SSE,166,0.0,1.0,67,0.00,,---,0.00,VWS V14.01,2013-07-10 00:50:00,
2013-07-09 19:55:00,88.8,76.9,29.84,SSE,165,0.0,1.0,68,0.00,,---,0.00,VWS V14.01,2013-07-10 00:55:00,
2013-07-09 20:00:00,88.3,76.4,29.84,SSE,165,0.0,1.0,68,0.00,,---,0.00,VWS V14.01,2013-07-10 01:00:00,
2013-07-09 20:05:00,87.7,76.3,29.84,SSE,166,0.0,0.0,69,0.00,,---,0.00,VWS V14.01,2013-07-10 01:05:00,
2013-07-09 20:10:00,87.1,76.1,29.84,SSE,166,0.0,0.0,70,0.00,,---,0.00,VWS V14.01,2013-07-10 01:10:00,
2013-07-09 20:15:00,86.6,76.1,29.84,SSE,166,0.0,0.0,71,0.00,,---,0.00,VWS V14.01,2013-07-10 01:15:00,
2013-07-09 20:20:00,86.1,75.6,29.84,SSE,166,0.0,1.0,71,0.00,,---,0.00,VWS V14.01,2013-07-10 01:20:00,
2013-07-09 20:25:00,85.7,75.6,29.84,SSE,166,0.0,1.0,72,0.00,,---,0.00,VWS V14.01,2013-07-10 01:25:00,
2013-07-09 20:30:00,85.4,75.3,29.84,SSE,166,0.0,1.0,72,0.00,,---,0.00,VWS V14.01,2013-07-10 01:30:00,
2013-07-09 20:35:00,85.1,75.1,29.85,SSE,166,0.0,0.0,72,0.00,,---,0.00,VWS V14.01,2013-07-10 01:35:00,
2013-07-09 20:40:00,84.8,74.8,29.85,SSE,166,0.0,1.0,72,0.00,,---,0.00,VWS V14.01,2013-07-10 01:40:00,
2013-07-09 20:46:00,84.7,75.1,29.85,SSE,166,0.0,1.0,73,0.00,,---,0.00,VWS V14.01,2013-07-10 01:46:00,
2013-07-09 20:51:00,84.5,74.9,29.86,SSE,166,0.0,1.0,73,0.00,,---,0.00,VWS V14.01,2013-07-10 01:51:00,
2013-07-09 20:56:00,84.2,75.0,29.86,SSE,166,0.0,1.0,74,0.00,,---,0.00,VWS V14.01,2013-07-10 01:56:00,
2013-07-09 21:01:00,84.0,74.8,29.86,SSE,166,0.0,1.0,74,0.00,,---,0.00,VWS V14.01,2013-07-10 02:01:00,
2013-07-09 21:06:00,83.8,74.6,29.86,SSE,166,0.0,0.0,74,0.00,,---,0.00,VWS V14.01,2013-07-10 02:06:00,
2013-07-09 21:11:00,83.7,75.3,29.86,SSE,166,0.0,0.0,76,0.00,,---,0.00,VWS V14.01,2013-07-10 02:11:00,
2013-07-09 21:16:00,83.4,74.7,29.86,SSE,166,0.0,0.0,75,0.00,,---,0.00,VWS V14.01,2013-07-10 02:16:00,
2013-07-09 21:21:00,83.1,74.8,29.86,SSE,166,0.0,0.0,76,0.00,,---,0.00,VWS V14.01,2013-07-10 02:21:00,
2013-07-09 21:26:00,82.9,74.6,29.86,SSE,166,0.0,1.0,76,0.00,,---,0.00,VWS V14.01,2013-07-10 02:26:00,
2013-07-09 21:31:00,82.6,74.3,29.86,SSE,166,0.0,1.0,76,0.00,,---,0.00,VWS V14.01,2013-07-10 02:31:00,
2013-07-09 21:36:00,82.4,74.1,29.87,SSE,166,0.0,1.0,76,0.00,,---,0.00,VWS V14.01,2013-07-10 02:36:00,
2013-07-09 21:41:00,82.3,74.0,29.87,SSE,166,0.0,1.0,76,0.00,,---,0.00,VWS V14.01,2013-07-10 02:41:00,
2013-07-09 21:46:00,82.3,74.0,29.87,SSE,166,0.0,1.0,76,0.00,,---,0.00,VWS V14.01,2013-07-10 02:46:00,
2013-07-09 21:51:00,82.2,74.3,29.87,SSE,166,0.0,1.0,77,0.00,,---,0.00,VWS V14.01,2013-07-10 02:51:00,
2013-07-09 21:56:00,82.0,74.1,29.87,SSE,166,0.0,1.0,77,0.00,,---,0.00,VWS V14.01,2013-07-10 02:56:00,
2013-07-09 22:01:00,82.0,74.1,29.87,SSE,166,0.0,1.0,77,0.00,,---,0.00,VWS V14.01,2013-07-10 03:01:00,
2013-07-09 22:06:00,81.9,74.0,29.87,SSE,167,0.0,1.0,77,0.00,,---,0.00,VWS V14.01,2013-07-10 03:06:00,
2013-07-09 22:11:00,81.9,74.0,29.87,SSE,164,0.0,1.0,77,0.00,,---,0.00,VWS V14.01,2013-07-10 03:11:00,
2013-07-09 22:16:00,81.9,74.0,29.87,SSE,164,0.0,1.0,77,0.00,,---,0.00,VWS V14.01,2013-07-10 03:16:00,
2013-07-09 22:21:00,81.9,74.0,29.87,SSE,164,0.0,1.0,77,0.00,,---,0.00,VWS V14.01,2013-07-10 03:21:00,
2013-07-09 22:26:00,81.8,73.9,29.87,SSE,148,0.0,2.0,77,0.00,,---,0.00,VWS V14.01,2013-07-10 03:26:00,
2013-07-09 22:31:00,81.9,74.0,29.87,South,174,0.0,3.0,77,0.00,,---,0.00,VWS V14.01,2013-07-10 03:31:00,
2013-07-09 22:36:00,81.8,73.9,29.87,SSE,161,0.0,2.0,77,0.00,,---,0.00,VWS V14.01,2013-07-10 03:36:00,
2013-07-09 22:41:00,81.8,73.9,29.87,SSE,167,0.0,2.0,77,0.00,,---,0.00,VWS V14.01,2013-07-10 03:41:00,
2013-07-09 22:46:00,81.8,73.9,29.87,SSE,167,0.0,2.0,77,0.00,,---,0.00,VWS V14.01,2013-07-10 03:46:00,
2013-07-09 22:51:00,81.8,74.3,29.87,South,170,0.0,2.0,78,0.00,,---,0.00,VWS V14.01,2013-07-10 03:51:00,
2013-07-09 22:56:00,81.7,74.2,29.87,SSW,201,0.0,2.0,78,0.00,,---,0.00,VWS V14.01,2013-07-10 03:56:00,
2013-07-09 23:01:00,81.6,74.1,29.87,SSE,161,0.0,2.0,78,0.00,,---,0.00,VWS V14.01,2013-07-10 04:01:00,
2013-07-09 23:06:00,81.5,74.0,29.87,SSE,165,0.0,0.0,78,0.00,,---,0.00,VWS V14.01,2013-07-10 04:06:00,
2013-07-09 23:11:00,81.5,74.0,29.87,South,170,0.0,0.0,78,0.00,,---,0.00,VWS V14.01,2013-07-10 04:11:00,
2013-07-09 23:16:00,81.4,73.9,29.87,SSE,162,0.0,0.0,78,0.00,,---,0.00,VWS V14.01,2013-07-10 04:16:00,
2013-07-09 23:21:00,81.3,73.8,29.87,SSE,163,0.0,0.0,78,0.00,,---,0.00,VWS V14.01,2013-07-10 04:21:00,
2013-07-09 23:26:00,81.3,74.2,29.87,SSE,164,0.0,0.0,79,0.00,,---,0.00,VWS V14.01,2013-07-10 04:26:00,
2013-07-09 23:31:00,81.2,74.1,29.87,SSE,164,0.0,0.0,79,0.00,,---,0.00,VWS V14.01,2013-07-10 04:31:00,
2013-07-09 23:36:00,81.1,74.0,29.87,SSE,152,0.0,0.0,79,0.00,,---,0.00,VWS V14.01,2013-07-10 04:36:00,
2013-07-09 23:41:00,81.2,74.1,29.87,SSE,168,0.0,0.0,79,0.00,,---,0.00,VWS V14.01,2013-07-10 04:41:00,
2013-07-09 23:46:00,81.1,74.0,29.87,South,182,0.0,0.0,79,0.00,,---,0.00,VWS V14.01,2013-07-10 04:46:00,
2013-07-09 23:51:00,81.0,73.9,29.87,SSE,167,0.0,0.0,79,0.00,,---,0.00,VWS V14.01,2013-07-10 04:51:00,
2013-07-09 23:56:00,81.1,74.0,29.87,SSE,167,0.0,0.0,79,0.00,,---,0.00,VWS V14.01,2013-07-10 04:56:00,